Hourly Data Report for November 07, 2019

All times are specified in Local Standard Time (LST). Add 1 hour to adjust for Daylight Saving Time where and when it is observed.

SATURNA ISLAND CS
BRITISH COLUMBIA
Current Station Operator: ECCC - MSC

48°47'02.067" N
123°02'41.082" W
24.40 m
1017101
71473
WEZ

Download Data

Hourly Data (November 2019)
Hourly Data Report for November 7, 2019
TIME Temp Definition
°C
Dew Point Definition
°C
Rel Hum Definition
%
Wind Dir Definition
10's deg

Wind Spd Definition
km/h
Visibility Definition
km
Stn Press Definition
kPa
Hmdx Definition


Wind Chill Definition


Weather Definition


00:00 8.1 7.3 95 31 6   102.14     LegendNANA
01:00 8.1 7.2 94 30 5   102.20     LegendNANA
02:00 7.9 7.0 94 32 6   102.14     LegendNANA
03:00 8.1 7.2 94 33 7   102.10     LegendNANA
04:00 7.8 7.0 95 31 5   102.11     LegendNANA
05:00 7.6 6.9 95 30 4   102.11     LegendNANA
06:00 7.7 7.2 97 31 4   102.10     LegendNANA
07:00 7.3 6.8 97 31 4   102.13     LegendNANA
08:00 7.6 7.0 96 35 7   102.10     LegendNANA
09:00 7.9 7.0 94 32 6   102.13     LegendNANA
10:00 8.4 7.0 91 32 6   102.11     LegendNANA
11:00 9.0 5.4 79 36 7   102.08     LegendNANA
12:00 10.0 4.7 70 32 5   102.06     LegendNANA
13:00 9.5 5.7 77 32 4   102.02     LegendNANA
14:00 9.3 6.5 82 32 5   101.98     LegendNANA
15:00 9.3 6.3 81 33 6   101.91     LegendNANA
16:00 8.8 6.8 87 32 9   101.87     LegendNANA
17:00 8.1 5.9 86 32 9   101.87     LegendNANA
18:00 8.0 6.3 89 30 7   101.89     LegendNANA
19:00 8.6 6.1 85 31 8   101.88     LegendNANA
20:00 8.3 6.0 85 32 6   101.88     LegendNANA
21:00 7.9 6.0 87 31 2   101.91     LegendNANA
22:00 8.2 6.2 87 32 5   101.91     LegendNANA
23:00 8.1 6.8 91 32 3   101.87     LegendNANA

Notes on Data Quality.

Legend

  • E = Estimated
  • M = Missing
  • NA = Not Available
Date modified: